PBO Station Position Time Series. Reference Frame : NAM14
Format Version,1.1.0
4-character ID,OLMP
Station name,OLMP
Begin Date, 2011-11-23
End Date, 2019-10-07
Release Date, 2019-10-08
Reference position, 47.0448473053 North Latitude, -122.8952180325 East Longitude, 2.62881 meters elevation,
Date, North (mm), East (mm), Vertical (mm), North Std. Deviation (mm), East Std. Deviation (mm),              Vertical Std. Deviation (mm), Quality,
2011-11-23,0.00, 0.00, 0.00, 2.29, 1.58, 7.20, repro,
2011-11-24,0.87, -0.17, -2.34, 2.17, 1.51, 6.87, repro,
2011-11-25,1.30, 1.15, 3.30, 2.20, 1.53, 7.01, repro,
2011-11-26,-1.08, 3.02, 1.55, 2.20, 1.51, 6.93, repro,
2011-11-27,-2.38, 1.62, 7.73, 2.19, 1.51, 6.94, repro,
2011-11-28,0.87, 1.69, -2.81, 2.24, 1.55, 7.06, repro,
2011-11-29,-0.38, 2.35, -4.29, 2.22, 1.54, 7.02, repro,
2011-11-30,1.28, 1.75, -2.96, 2.26, 1.54, 7.11, repro,
2011-12-01,2.62, 1.63, -16.12, 2.18, 1.51, 6.90, repro,
2011-12-02,2.79, 0.66, -3.24, 2.28, 1.57, 7.16, repro,
2011-12-03,1.13, 0.64, -6.61, 2.25, 1.58, 7.12, repro,
2011-12-04,2.53, 1.58, -10.94, 2.21, 1.54, 7.01, repro,
2011-12-05,3.09, 1.70, -13.71, 2.21, 1.54, 7.04, repro,
2011-12-06,2.89, 0.62, -5.10, 2.20, 1.53, 6.98, repro,
2011-12-07,1.04, 0.92, -2.62, 2.21, 1.54, 7.01, repro,
2011-12-08,1.48, 0.99, -4.27, 2.19, 1.53, 6.96, repro,
2011-12-09,1.63, 2.48, -4.05, 2.20, 1.53, 6.97, repro,
2011-12-10,1.29, 1.56, -2.25, 2.21, 1.54, 7.04, repro,
2011-12-11,1.30, 1.45, -2.44, 2.26, 1.57, 7.17, repro,
2011-12-12,1.63, 1.51, -2.54, 2.23, 1.54, 7.05, repro,
2011-12-13,1.81, 0.93, 5.32, 2.20, 1.53, 6.96, repro,
2011-12-14,2.07, 0.98, -3.10, 2.14, 1.49, 6.77, repro,
2011-12-15,-0.95, 2.93, -2.41, 2.25, 1.54, 7.03, repro,
2011-12-16,2.48, 2.50, -2.83, 2.23, 1.52, 6.99, repro,
2011-12-17,1.37, 2.34, -2.38, 2.15, 1.49, 6.82, repro,
2011-12-18,0.48, 3.26, 3.50, 2.18, 1.50, 6.90, repro,
2011-12-19,1.72, 2.92, -1.89, 2.20, 1.53, 6.98, repro,
2011-12-20,0.91, 2.97, -7.55, 2.26, 1.60, 7.11, repro,
2011-12-21,2.48, 1.98, -3.50, 2.14, 1.47, 6.74, repro,
2011-12-22,2.70, 2.48, -5.53, 2.14, 1.49, 6.79, repro,
2011-12-23,1.04, 1.21, -5.91, 2.20, 1.52, 6.90, repro,
2011-12-24,0.20, 1.32, -1.89, 2.18, 1.50, 6.83, repro,
2011-12-25,1.43, 2.68, -10.10, 2.16, 1.50, 6.77, repro,
2011-12-26,0.79, 0.98, -3.50, 2.16, 1.51, 6.80, repro,
2011-12-27,-0.21, 1.42, 2.84, 2.19, 1.51, 6.89, repro,
2011-12-28,-1.89, 1.32, -1.77, 2.20, 1.52, 6.93, repro,
2011-12-29,0.88, 0.06, 8.97, 2.19, 1.51, 6.87, repro,
2011-12-30,-2.68, 1.71, 7.93, 2.20, 1.52, 6.90, repro,
2011-12-31,3.10, 1.64, -6.58, 2.11, 1.47, 6.69, repro,
2012-01-01,2.38, 2.00, -10.54, 2.14, 1.48, 6.77, repro,
2012-01-02,1.19, 1.30, -5.41, 2.16, 1.48, 6.78, repro,
2012-01-03,0.42, 2.54, 1.54, 2.17, 1.50, 6.79, repro,
2012-01-04,-2.05, 1.81, -4.54, 2.20, 1.52, 6.88, repro,
2012-01-05,-3.64, 2.72, -0.56, 2.18, 1.51, 6.86, repro,
2012-01-06,0.72, 0.60, -5.90, 2.42, 1.69, 7.67, repro,
2012-01-07,2.58, 1.36, -4.19, 2.16, 1.50, 6.77, repro,
2012-01-08,1.35, 1.49, -4.19, 2.15, 1.48, 6.77, repro,
2012-01-09,2.25, 1.89, 3.38, 2.17, 1.47, 6.77, repro,
2012-01-10,1.45, 1.76, -1.39, 2.16, 1.47, 6.79, repro,
2012-01-11,1.93, 2.16, -9.79, 2.16, 1.49, 6.84, repro,
2012-01-12,2.72, 1.40, -3.22, 2.15, 1.48, 6.79, repro,
2012-01-13,1.83, 1.12, -3.00, 2.14, 1.46, 6.74, repro,
2012-01-14,2.32, 3.31, -3.43, 2.15, 1.47, 6.73, repro,
2012-01-15,1.27, 1.47, -7.68, 2.14, 1.47, 6.73, repro,
2012-01-16,2.60, 0.50, -12.15, 2.12, 1.47, 6.77, repro,
2012-01-17,3.32, -0.55, -5.71, 2.12, 1.47, 6.73, repro,
2012-01-18,1.49, 1.56, 5.96, 2.19, 1.52, 6.90, repro,
2012-01-19,3.60, 5.32, 0.18, 2.84, 1.93, 8.99, repro,
2012-01-20,0.07, 6.40, -15.19, 2.25, 1.55, 7.07, repro,
2012-01-21,0.64, 2.39, 9.10, 2.15, 1.47, 6.76, repro,
2012-01-22,0.31, 1.67, 4.28, 2.12, 1.48, 6.76, repro,
2012-01-23,1.79, 2.31, 1.60, 2.16, 1.50, 6.88, repro,
2012-01-24,2.60, 1.64, -3.56, 2.14, 1.48, 6.79, repro,
2012-01-25,0.52, 0.93, -4.79, 2.21, 1.52, 6.99, repro,
2012-01-26,1.05, 3.08, -3.34, 2.25, 1.56, 7.03, repro,
2012-01-27,2.22, 3.06, -13.05, 2.17, 1.50, 6.86, repro,
2012-01-28,2.38, 2.09, -8.36, 2.44, 1.75, 8.01, repro,
2012-01-29,-0.30, 2.60, -2.00, 2.17, 1.50, 6.88, repro,
2012-01-30,-0.20, 1.10, 2.04, 2.13, 1.47, 6.73, repro,
2012-01-31,2.67, 1.58, -1.45, 2.13, 1.46, 6.70, repro,
2012-02-01,0.47, 1.79, 1.98, 2.15, 1.47, 6.77, repro,
2012-02-02,1.84, 1.78, -4.97, 2.15, 1.50, 6.82, repro,
2012-02-03,1.44, 1.42, -9.90, 2.12, 1.47, 6.70, repro,
2012-02-04,2.35, 2.43, -7.24, 2.18, 1.51, 6.90, repro,
2012-02-05,3.35, 3.15, -5.32, 2.19, 1.51, 6.92, repro,
2012-02-06,2.83, 3.73, -10.21, 2.19, 1.50, 6.85, repro,
2012-02-07,2.68, 2.00, -6.70, 2.25, 1.53, 7.09, repro,
2012-02-08,1.60, 1.87, -8.31, 2.14, 1.48, 6.72, repro,
2012-02-09,1.26, 1.72, -9.01, 2.17, 1.50, 6.83, repro,
2012-02-10,0.06, 2.42, -2.21, 2.21, 1.51, 6.93, repro,
2012-02-11,1.51, 2.06, -7.19, 2.16, 1.49, 6.76, repro,
2012-02-12,1.87, 1.97, -2.79, 2.16, 1.48, 6.74, repro,
2012-02-13,2.53, 2.12, -0.74, 2.16, 1.49, 6.78, repro,
2012-02-14,1.32, 1.02, 0.24, 2.15, 1.49, 6.78, repro,
2012-02-15,1.66, 2.11, -4.23, 2.17, 1.49, 6.80, repro,
2012-02-16,1.66, 1.90, -8.99, 2.19, 1.51, 6.85, repro,
2012-02-17,1.58, 1.89, -10.61, 2.17, 1.49, 6.79, repro,
2012-02-18,0.37, 1.54, -1.32, 2.16, 1.49, 6.77, repro,
2012-02-19,1.46, 2.35, -4.74, 2.18, 1.50, 6.84, repro,
2012-02-20,1.62, 1.49, -2.44, 2.17, 1.49, 6.79, repro,
2012-02-21,0.72, 2.08, 2.92, 2.26, 1.53, 7.06, repro,
2012-02-22,3.85, 2.32, 4.38, 2.29, 1.55, 7.16, repro,
2012-02-23,2.08, 0.98, -3.83, 2.20, 1.50, 6.89, repro,
2012-02-24,1.71, 2.52, -4.97, 2.14, 1.46, 6.75, repro,
2012-02-25,1.19, 2.00, 0.04, 2.16, 1.48, 6.80, repro,
2012-02-26,1.91, 1.80, -2.39, 2.18, 1.48, 6.85, repro,
2012-02-27,2.72, 2.21, -7.53, 2.22, 1.49, 6.88, repro,
2012-02-28,1.37, 1.12, 2.13, 2.21, 1.49, 6.93, repro,
2012-02-29,3.70, 1.66, -0.83, 2.14, 1.47, 6.76, repro,
2012-03-01,2.71, 1.31, -1.83, 2.18, 1.50, 6.85, repro,
2012-03-02,1.26, 1.55, -9.39, 2.18, 1.49, 6.83, repro,
2012-03-03,1.62, 0.49, -9.91, 2.14, 1.46, 6.77, repro,
2012-03-04,1.34, 1.70, -2.44, 2.19, 1.48, 6.92, repro,
2012-03-05,0.51, 3.39, -2.38, 2.18, 1.48, 6.87, repro,
2012-03-06,3.13, 2.05, -5.32, 2.25, 1.52, 6.99, repro,
2012-03-07,3.34, 1.94, -3.57, 2.19, 1.51, 6.91, repro,
2012-03-08,2.48, 2.74, -10.60, 2.22, 1.51, 6.94, repro,
2012-03-09,2.24, 3.10, -9.22, 2.28, 1.53, 7.09, repro,
2012-03-10,1.90, 1.95, 3.11, 2.21, 1.51, 6.98, repro,
2012-03-11,2.65, 1.19, 2.49, 2.21, 1.51, 6.94, repro,
2012-03-12,2.97, 1.05, -3.70, 2.31, 1.56, 7.16, repro,
2012-03-13,0.73, 0.48, 2.04, 2.18, 1.48, 6.79, repro,
2012-03-14,2.11, 1.77, -0.40, 2.18, 1.49, 6.84, repro,
2012-03-15,0.15, 1.24, -0.65, 2.28, 1.53, 7.10, repro,
2012-03-16,1.99, 1.28, -1.62, 2.15, 1.47, 6.81, repro,
2012-03-17,3.91, 0.70, -8.61, 2.19, 1.50, 6.88, repro,
2012-03-18,3.25, 1.06, -3.93, 2.23, 1.51, 6.88, repro,
2012-03-19,1.83, 0.47, -4.02, 2.19, 1.49, 6.83, repro,
2012-03-20,-0.51, 3.43, -2.46, 2.18, 1.48, 6.83, repro,
2012-03-21,1.05, 2.60, -9.66, 2.15, 1.47, 6.77, repro,
2012-03-22,2.25, 2.11, -10.66, 2.20, 1.50, 6.90, repro,
2012-03-23,3.29, 0.88, -12.62, 2.80, 1.85, 8.47, repro,
2012-03-24,2.33, 2.04, -9.28, 2.18, 1.49, 6.85, repro,
2012-03-25,3.13, 2.06, -4.07, 2.17, 1.46, 6.77, repro,
2012-03-26,3.58, 2.52, -3.61, 2.17, 1.48, 6.84, repro,
2012-03-27,0.90, 2.58, -5.65, 2.18, 1.50, 6.89, repro,
2012-03-28,4.02, 1.44, -3.89, 2.18, 1.51, 6.89, repro,
2012-03-29,1.60, 1.51, -6.46, 2.16, 1.49, 6.81, repro,
2012-03-30,2.23, 1.78, 1.18, 2.22, 1.52, 6.96, repro,
2012-03-31,3.24, 1.47, 1.49, 2.14, 1.46, 6.72, repro,
2012-04-01,1.40, 2.19, -2.57, 2.15, 1.48, 6.81, repro,
2012-04-02,1.21, 3.94, -10.62, 2.14, 1.47, 6.78, repro,
2012-04-03,2.49, 3.37, -9.61, 2.13, 1.47, 6.76, repro,
2012-04-04,3.04, 3.07, -8.59, 2.13, 1.45, 6.67, repro,
2012-04-05,3.64, 2.80, -13.72, 2.13, 1.45, 6.69, repro,
2012-04-06,3.13, 2.50, -16.07, 2.13, 1.45, 6.70, repro,
2012-04-07,2.72, 3.80, -13.71, 2.14, 1.45, 6.72, repro,
2012-04-08,2.35, 3.54, -12.19, 2.15, 1.47, 6.84, repro,
2012-04-09,1.19, 2.85, -10.49, 2.17, 1.49, 6.95, repro,
2012-04-10,2.78, 2.05, -13.63, 2.12, 1.46, 6.70, repro,
2012-04-11,3.59, 1.64, -8.74, 2.15, 1.46, 6.80, repro,
2012-04-12,1.93, 2.95, -9.83, 2.17, 1.50, 6.93, repro,
2012-04-13,2.03, 2.60, -9.06, 2.16, 1.46, 6.84, repro,
2012-04-14,3.90, 2.60, -14.23, 2.13, 1.46, 6.76, repro,
2012-04-15,2.85, 2.81, -11.12, 2.12, 1.47, 6.74, repro,
2012-04-16,1.72, 1.87, -9.27, 2.15, 1.47, 6.83, repro,
2012-04-17,3.30, 2.19, -15.92, 2.14, 1.46, 6.78, repro,
2012-04-18,1.35, 3.01, -10.11, 2.16, 1.46, 6.77, repro,
2012-04-19,2.92, 3.64, -18.94, 2.14, 1.47, 6.78, repro,
2012-04-20,4.09, 3.69, -11.37, 2.12, 1.45, 6.72, repro,
2012-04-21,2.66, 2.59, -15.71, 2.15, 1.47, 6.79, repro,
2012-04-22,2.06, 3.11, -15.65, 2.13, 1.46, 6.75, repro,
2012-04-23,1.65, 4.15, -15.11, 2.15, 1.47, 6.80, repro,
2012-04-24,1.35, 3.40, -7.16, 2.20, 1.50, 6.96, repro,
2012-04-25,2.65, 2.49, -11.13, 2.19, 1.49, 6.90, repro,
2012-04-26,2.44, 2.02, -6.36, 2.14, 1.46, 6.74, repro,
2012-04-27,3.76, 1.83, -14.47, 2.23, 1.48, 6.90, repro,
2012-04-28,3.57, 3.07, -15.73, 2.12, 1.45, 6.69, repro,
2012-04-29,3.49, 2.83, -18.31, 2.16, 1.46, 6.74, repro,
2012-04-30,1.73, 2.59, -6.13, 2.12, 1.45, 6.69, repro,
2012-05-01,2.65, 2.63, -4.33, 2.19, 1.49, 6.88, repro,
2012-05-02,3.10, 2.50, -9.80, 2.18, 1.49, 6.85, repro,
2012-05-03,3.11, 2.29, -9.84, 2.11, 1.45, 6.69, repro,
2012-05-04,3.39, 2.89, -18.12, 2.13, 1.46, 6.72, repro,
2012-05-05,3.31, 3.21, -22.44, 2.13, 1.47, 6.77, repro,
2012-05-06,2.96, 2.52, -21.67, 2.17, 1.49, 6.86, repro,
2012-05-07,2.15, 3.03, -16.77, 2.18, 1.49, 6.83, repro,
2012-05-08,2.26, 3.26, -10.78, 2.14, 1.48, 6.93, repro,
2012-05-09,3.22, 3.06, -14.23, 2.15, 1.46, 6.78, repro,
2012-05-10,2.10, 3.03, -19.48, 2.13, 1.45, 6.72, repro,
2012-05-11,2.84, 2.80, -15.21, 2.13, 1.45, 6.70, repro,
2012-05-12,2.52, 2.95, -13.48, 2.13, 1.45, 6.73, repro,
2012-05-13,2.47, 4.01, -13.94, 2.44, 1.75, 7.83, repro,
2012-05-14,3.47, 2.94, -13.10, 2.12, 1.45, 6.70, repro,
2012-05-15,2.67, 2.57, -15.67, 2.15, 1.46, 6.78, repro,
2012-05-16,2.27, 2.68, -12.93, 2.15, 1.47, 6.79, repro,
2012-05-17,2.93, 1.41, -10.67, 2.14, 1.46, 6.74, repro,
2012-05-18,3.68, 2.24, -3.06, 2.17, 1.50, 6.92, repro,
2012-05-19,4.03, 2.85, -8.63, 2.20, 1.52, 6.97, repro,
2012-05-20,3.71, 2.74, -6.39, 2.19, 1.49, 6.89, repro,
2012-05-21,0.48, 2.18, -5.94, 2.19, 1.50, 6.91, repro,
2012-05-22,2.77, 1.37, -8.74, 2.17, 1.50, 6.88, repro,
2012-05-23,2.34, 2.10, -1.51, 2.16, 1.49, 6.84, repro,
2012-05-24,3.18, 1.66, -5.35, 2.16, 1.48, 6.83, repro,
2012-05-25,3.64, 2.89, -8.76, 2.20, 1.50, 6.95, repro,
2012-05-26,2.80, 4.00, -6.66, 2.20, 1.49, 6.91, repro,
2012-05-27,2.17, 1.57, -8.27, 2.25, 1.56, 7.05, repro,
2012-05-28,0.46, 3.04, -0.32, 2.17, 1.47, 6.81, repro,
2012-05-29,2.63, 2.42, -9.29, 2.13, 1.46, 6.76, repro,
2012-05-30,2.90, 2.93, 0.41, 2.16, 1.46, 6.80, repro,
2012-05-31,2.07, 3.21, -10.96, 2.19, 1.48, 6.92, repro,
2012-06-01,1.71, 2.00, -0.09, 2.15, 1.46, 6.77, repro,
2012-06-02,2.33, 2.78, -4.23, 2.20, 1.49, 6.89, repro,
2012-06-03,3.06, 3.08, -2.44, 2.15, 1.46, 6.78, repro,
2012-06-04,4.45, 3.34, -1.57, 2.17, 1.49, 6.89, repro,
2012-06-05,3.13, 1.62, -11.46, 2.15, 1.47, 6.81, repro,
2012-06-06,1.78, 2.84, -7.31, 2.15, 1.46, 6.77, repro,
2012-06-07,1.08, 2.99, 0.43, 2.18, 1.50, 6.89, repro,
2012-06-08,0.95, 3.80, -5.34, 2.24, 1.50, 6.91, repro,
2012-06-09,3.90, 2.19, -8.22, 2.20, 1.50, 6.98, repro,
2012-06-10,3.59, 3.88, -5.73, 2.16, 1.48, 6.86, repro,
2012-06-11,2.47, 4.05, -11.80, 2.16, 1.47, 6.81, repro,
2012-06-12,2.06, 3.23, -5.12, 2.16, 1.46, 6.76, repro,
2012-06-13,1.12, 3.23, -5.94, 2.16, 1.46, 6.77, repro,
2012-06-14,2.04, 1.71, -8.60, 2.15, 1.46, 6.78, repro,
2012-06-15,1.39, 3.17, -9.12, 2.17, 1.50, 6.88, repro,
2012-06-16,2.59, 3.59, -5.56, 2.14, 1.46, 6.76, repro,
2012-06-17,2.05, 2.45, 0.15, 2.15, 1.47, 6.80, repro,
2012-06-18,2.05, 0.75, -7.97, 2.15, 1.46, 6.80, repro,
2012-06-19,1.43, 3.08, -9.91, 2.16, 1.48, 6.81, repro,
2012-06-20,2.54, 4.41, 0.40, 2.56, 1.72, 7.96, repro,
2012-06-21,2.51, 2.44, -10.10, 2.13, 1.47, 6.75, repro,
2012-06-22,3.28, 2.43, -5.52, 2.14, 1.47, 6.78, repro,
2012-06-23,2.06, 2.60, -10.17, 2.39, 1.63, 7.59, repro,
2012-06-24,2.44, 3.64, -5.47, 2.21, 1.50, 6.96, repro,
2012-06-25,2.06, 3.05, -5.06, 2.14, 1.46, 6.76, repro,
2012-06-26,1.58, 2.46, -8.23, 2.15, 1.47, 6.82, repro,
2012-06-27,0.39, 3.43, -11.61, 2.13, 1.46, 6.73, repro,
2012-06-28,2.81, 3.90, -3.45, 2.16, 1.46, 6.82, repro,
2012-06-29,4.12, 3.19, -11.31, 2.16, 1.47, 6.78, repro,
2012-06-30,2.15, 2.11, -5.38, 2.14, 1.46, 6.75, repro,
2012-07-01,3.82, 1.94, -2.85, 2.17, 1.47, 6.77, repro,
2012-07-02,2.66, 2.39, -8.51, 2.60, 1.99, 8.80, repro,
2012-07-03,2.63, 4.86, -2.92, 2.16, 1.47, 6.84, repro,
2012-07-04,3.42, 2.83, -13.68, 2.14, 1.45, 6.68, repro,
2012-07-05,2.01, 3.93, -11.83, 2.22, 1.52, 7.07, repro,
2012-07-06,1.65, 2.83, -9.10, 2.20, 1.49, 6.97, repro,
2012-07-07,0.46, 2.75, -6.55, 2.14, 1.45, 6.72, repro,
2012-07-08,1.19, 3.43, -8.43, 2.16, 1.47, 6.80, repro,
2012-07-09,2.22, 3.34, -8.12, 2.13, 1.47, 6.74, repro,
2012-07-10,1.92, 3.56, -11.42, 2.15, 1.46, 6.76, repro,
2012-07-11,3.41, 3.08, -5.07, 2.17, 1.46, 6.80, repro,
2012-07-12,3.70, 1.04, -2.33, 2.15, 1.46, 6.76, repro,
2012-07-13,0.27, -0.06, -7.14, 2.15, 1.47, 6.77, repro,
2012-07-14,2.06, 3.63, -9.86, 2.17, 1.49, 6.92, repro,
2012-07-15,3.20, 2.45, -10.24, 2.14, 1.47, 6.76, repro,
2012-07-16,2.44, 4.84, -6.37, 2.18, 1.48, 6.86, repro,
2012-07-17,2.33, 1.78, 2.69, 2.15, 1.45, 6.76, repro,
2012-07-18,0.68, 1.13, 3.95, 2.13, 1.45, 6.70, repro,
2012-07-19,1.85, 2.37, -4.57, 2.14, 1.46, 6.72, repro,
2012-07-20,4.10, 1.21, -0.82, 2.14, 1.47, 6.79, repro,
2012-07-21,1.54, 3.99, -5.92, 2.17, 1.46, 6.77, repro,
2012-07-22,3.63, 3.09, -4.55, 2.15, 1.46, 6.79, repro,
2012-07-23,2.05, 0.67, -7.88, 2.15, 1.45, 6.74, repro,
2012-07-24,1.43, 2.23, -6.21, 2.18, 1.48, 6.85, repro,
2012-07-25,2.92, 2.69, -4.69, 2.13, 1.46, 6.70, repro,
2012-07-26,2.55, 3.60, -5.16, 2.20, 1.51, 6.87, repro,
2012-07-27,1.67, 2.83, -2.27, 2.16, 1.47, 6.84, repro,
2012-07-28,2.54, 2.00, 1.01, 2.17, 1.46, 6.81, repro,
2012-07-29,1.12, 1.70, 3.87, 2.14, 1.46, 6.76, repro,
2012-07-30,1.08, 2.99, -0.85, 2.14, 1.46, 6.78, repro,
2012-07-31,2.31, 2.79, -3.42, 2.35, 1.63, 7.62, repro,
2012-08-01,2.50, 3.87, -7.03, 2.18, 1.48, 6.90, repro,
2012-08-02,-0.59, 3.77, 3.09, 2.18, 1.47, 6.87, repro,
2012-08-03,1.72, 2.96, 0.92, 2.25, 1.50, 6.95, repro,
2012-08-04,1.83, 3.26, -4.47, 2.16, 1.47, 6.78, repro,
2012-08-05,1.78, 3.10, -2.63, 2.13, 1.45, 6.69, repro,
2012-08-06,1.03, 3.35, -0.63, 2.16, 1.47, 6.87, repro,
2012-08-07,2.39, 2.77, -2.44, 2.15, 1.47, 6.81, repro,
2012-08-08,-0.12, 2.80, 6.19, 2.21, 1.50, 7.04, repro,
2012-08-09,1.06, 2.16, -0.86, 2.14, 1.46, 6.76, repro,
2012-08-10,1.85, 3.13, -5.73, 2.11, 1.46, 6.69, repro,
2012-08-11,0.94, 2.92, -3.86, 2.13, 1.46, 6.72, repro,
2012-08-12,0.67, 4.06, -1.57, 2.17, 1.48, 6.85, repro,
2012-08-13,0.92, 2.58, 1.17, 2.17, 1.48, 6.87, repro,
2012-08-14,1.31, 3.31, 7.15, 2.16, 1.46, 6.80, repro,
2012-08-15,2.57, 2.88, -2.20, 2.14, 1.46, 6.77, repro,
2012-08-16,2.20, 2.92, 0.19, 2.17, 1.48, 6.80, repro,
2012-08-17,1.24, 3.85, 0.62, 2.17, 1.48, 6.87, repro,
2012-08-18,1.25, 3.34, -3.01, 2.17, 1.48, 6.88, repro,
2012-08-19,0.09, 1.89, 6.08, 2.16, 1.47, 6.86, repro,
2012-08-20,0.31, 3.02, -0.53, 2.15, 1.46, 6.80, repro,
2012-08-21,1.82, 2.73, 2.49, 2.12, 1.47, 6.78, repro,
2012-08-22,1.48, 3.04, -4.04, 2.15, 1.46, 6.78, repro,
2012-08-23,1.32, 2.04, 1.97, 2.14, 1.46, 6.77, repro,
2012-08-24,1.17, 3.86, -1.33, 2.16, 1.47, 6.81, repro,
2012-08-25,1.13, 2.56, 3.57, 2.16, 1.46, 6.83, repro,
2012-08-26,0.89, 3.38, 8.50, 2.15, 1.47, 6.76, repro,
2012-08-27,0.75, 2.81, 2.41, 2.14, 1.47, 6.76, repro,
2012-08-28,1.32, 2.82, 2.47, 2.18, 1.50, 7.00, repro,
2012-08-29,-0.03, 3.22, 3.42, 2.16, 1.50, 6.99, repro,
2012-08-30,1.56, 3.73, -1.09, 2.15, 1.46, 6.77, repro,
2012-08-31,1.83, 3.42, -0.52, 2.15, 1.47, 6.84, repro,
2012-09-01,1.40, 3.81, 0.05, 2.12, 1.46, 6.72, repro,
2012-09-02,0.82, 2.79, 0.75, 2.15, 1.48, 6.81, repro,
2012-09-03,0.24, 4.18, -2.47, 2.15, 1.47, 6.81, repro,
2012-09-04,1.94, 4.26, -6.75, 2.19, 1.50, 6.88, repro,
2012-09-05,1.44, 3.75, -0.81, 2.15, 1.46, 6.79, repro,
2012-09-06,1.09, 4.51, 1.04, 2.20, 1.51, 6.96, repro,
2012-09-07,1.24, 4.37, 3.48, 2.17, 1.51, 6.87, repro,
2012-09-08,2.03, 3.71, -0.82, 2.20, 1.52, 6.93, repro,
2012-09-09,0.68, 3.08, 4.97, 2.14, 1.48, 6.79, repro,
2012-09-10,2.20, 3.88, 5.13, 2.17, 1.51, 6.93, repro,
2012-09-11,2.24, 4.18, -3.27, 2.17, 1.51, 6.93, repro,
2012-09-12,3.47, 3.92, -3.92, 2.17, 1.51, 6.90, repro,
2012-09-13,1.68, 4.41, -4.57, 2.24, 1.54, 7.02, repro,
2012-09-14,2.73, 3.72, -8.77, 2.16, 1.48, 6.80, repro,
2012-09-15,3.76, 4.49, -6.51, 2.15, 1.47, 6.80, repro,
2012-09-16,1.33, 4.01, -5.85, 2.16, 1.47, 6.81, repro,
2012-09-17,1.74, 4.11, -3.97, 2.15, 1.46, 6.77, repro,
2012-09-18,2.35, 3.62, 2.48, 2.15, 1.47, 6.79, repro,
2012-09-19,1.96, 3.61, 1.42, 2.14, 1.47, 6.75, repro,
2012-09-20,2.74, 4.47, -4.00, 2.12, 1.45, 6.67, repro,
2012-09-21,2.08, 4.22, -2.30, 2.12, 1.45, 6.69, repro,
2012-09-22,1.41, 4.30, 1.00, 2.16, 1.48, 6.85, repro,
2012-09-23,2.97, 2.89, 0.18, 2.16, 1.47, 6.80, repro,
2012-09-24,1.65, 3.23, 1.77, 2.18, 1.51, 6.90, repro,
2012-09-25,3.23, 3.86, 0.17, 2.18, 1.53, 6.94, repro,
2012-09-26,2.98, 3.79, -2.20, 2.14, 1.46, 6.73, repro,
2012-09-27,1.20, 4.47, -0.75, 2.19, 1.50, 6.94, repro,
2012-09-28,0.66, 5.20, 3.81, 2.32, 1.59, 7.40, repro,
2012-09-29,-0.16, 4.06, 5.58, 2.15, 1.48, 6.84, repro,
2012-09-30,1.50, 4.04, -2.13, 2.15, 1.47, 6.81, repro,
2012-10-01,2.30, 4.11, -8.19, 2.17, 1.49, 6.85, repro,
2012-10-02,1.94, 5.04, -0.50, 2.12, 1.46, 6.70, repro,
2012-10-03,2.06, 3.86, -2.02, 2.15, 1.47, 6.80, repro,
2012-10-04,2.09, 3.95, -4.09, 2.14, 1.47, 6.79, repro,
2012-10-05,0.80, 3.66, 1.01, 2.15, 1.51, 6.87, repro,
2012-10-06,0.77, 4.90, -3.19, 2.15, 1.47, 6.79, repro,
2012-10-07,2.38, 5.52, -1.99, 2.20, 1.53, 6.99, repro,
2012-10-08,0.91, 3.75, 0.07, 2.20, 1.50, 6.90, repro,
2012-10-09,1.95, 3.82, -1.68, 2.18, 1.49, 6.90, repro,
2012-10-10,2.11, 2.44, -2.55, 2.17, 1.50, 6.86, repro,
2012-10-11,1.51, 3.90, 2.91, 2.15, 1.48, 6.77, repro,
2012-10-12,0.78, 4.16, 2.07, 2.19, 1.51, 6.95, repro,
2012-10-13,1.97, 3.62, 6.58, 2.23, 1.50, 6.99, repro,
2012-10-14,-0.51, 4.93, 4.61, 2.23, 1.52, 6.97, repro,
2012-10-15,1.39, 3.19, 9.78, 2.24, 1.55, 7.09, repro,
2012-10-16,2.97, 5.51, 5.95, 2.20, 1.53, 7.05, repro,
2012-10-17,1.16, 3.67, -2.14, 2.20, 1.50, 6.97, repro,
2012-10-18,1.66, 4.57, -10.45, 2.20, 1.50, 6.93, repro,
2012-10-19,-0.42, 4.62, 10.67, 2.18, 1.50, 6.93, repro,
2012-10-20,-0.39, 6.61, 14.16, 2.19, 1.51, 6.96, repro,
2012-10-21,0.57, 2.36, -0.13, 2.18, 1.49, 6.90, repro,
2012-10-22,2.48, 4.17, -5.97, 2.35, 1.61, 7.37, repro,
2012-10-23,1.22, 3.51, -7.44, 2.25, 1.55, 7.15, repro,
2012-10-24,2.32, 3.30, -8.41, 2.21, 1.50, 6.93, repro,
2012-10-25,1.22, 3.91, -12.55, 2.19, 1.48, 6.83, repro,
2012-10-26,0.06, 5.01, -14.57, 2.23, 1.51, 6.96, repro,
2012-10-27,0.26, 3.68, -5.36, 2.18, 1.50, 6.90, repro,
2012-10-28,1.32, 3.62, -1.61, 2.20, 1.49, 6.88, repro,
2012-10-29,-1.97, 5.73, 1.50, 2.23, 1.51, 6.99, repro,
2012-10-30,0.11, 3.81, -9.60, 2.17, 1.50, 6.85, repro,
2012-10-31,-0.23, 3.18, -6.22, 2.21, 1.52, 7.01, repro,
2012-11-01,0.65, 3.35, -3.84, 2.19, 1.50, 6.91, repro,
2012-11-02,1.03, 3.24, 2.86, 2.27, 1.58, 7.23, repro,
2012-11-03,-1.69, 4.40, -2.82, 2.25, 1.54, 7.06, repro,
2012-11-04,0.87, 3.66, -6.25, 2.21, 1.51, 6.99, repro,
2012-11-05,-1.09, 6.19, -3.26, 2.26, 1.56, 7.22, repro,
2012-11-06,0.11, 5.07, -7.76, 2.32, 1.59, 7.24, repro,
2012-11-07,1.46, 6.93, 1.67, 2.22, 1.54, 7.10, repro,
2012-11-08,3.26, 3.18, -10.05, 2.25, 1.54, 7.12, repro,
2012-11-09,3.89, 4.14, -15.01, 2.23, 1.52, 7.01, repro,
2012-11-10,2.41, 3.48, -8.14, 2.26, 1.55, 7.15, repro,
2012-11-11,1.96, 4.30, -10.31, 2.23, 1.54, 7.10, repro,
2012-11-12,0.95, 4.94, -9.80, 2.21, 1.53, 7.04, repro,
2012-11-13,1.68, 4.22, -13.02, 2.20, 1.52, 7.00, repro,
2012-11-14,1.20, 4.23, -14.50, 2.17, 1.48, 6.82, repro,
2012-11-15,1.28, 4.72, -14.55, 2.23, 1.52, 7.04, repro,
2012-11-16,1.34, 4.93, -13.82, 2.24, 1.54, 7.06, repro,
2012-11-17,0.96, 4.25, -4.57, 2.22, 1.56, 7.10, repro,
2012-11-18,1.16, 4.52, -8.41, 2.26, 1.58, 7.17, repro,
2012-11-19,0.68, 4.53, -8.00, 2.24, 1.55, 7.05, repro,
2012-11-20,-1.20, 4.15, -1.87, 2.24, 1.53, 7.11, repro,
2012-11-21,1.19, 4.64, -5.59, 2.21, 1.50, 6.98, repro,
2012-11-22,1.84, 6.15, -12.91, 2.14, 1.47, 6.77, repro,
2012-11-23,-0.66, 5.71, -16.66, 2.12, 1.48, 6.76, repro,
2012-11-24,2.50, 4.04, -8.40, 2.17, 1.50, 6.88, repro,
2012-11-25,0.74, 5.18, -18.02, 2.22, 1.55, 7.01, repro,
2012-11-26,1.30, 5.45, -24.60, 2.26, 1.58, 7.16, repro,
2012-11-27,0.76, 5.47, -22.47, 2.21, 1.51, 7.01, repro,
2012-11-28,0.85, 5.24, -11.93, 2.25, 1.53, 7.11, repro,
2012-11-29,0.22, 4.44, -14.09, 2.82, 2.03, 9.36, repro,
2012-11-30,2.07, 2.67, -17.70, 2.77, 2.03, 8.95, repro,
2012-12-01,2.93, 2.14, -16.78, 2.83, 2.01, 8.97, repro,
2012-12-02,2.91, 2.69, 2.64, 3.09, 2.24, 9.88, repro,
2012-12-03,0.08, 5.55, -11.56, 3.13, 2.27, 10.08, repro,
2012-12-04,-2.52, 3.63, -9.81, 2.98, 2.10, 9.48, repro,
2012-12-05,-1.44, 6.33, -18.23, 3.17, 2.33, 10.51, repro,
2012-12-06,4.06, 4.89, -25.81, 2.67, 2.06, 8.64, repro,
2012-12-07,3.82, 3.95, -8.43, 2.67, 1.88, 8.67, repro,
2012-12-08,2.81, 3.83, -17.71, 2.37, 1.61, 7.41, repro,
2012-12-09,0.95, 4.59, -15.12, 2.32, 1.66, 7.50, repro,
2012-12-10,3.94, 4.74, -17.76, 2.61, 1.92, 8.42, repro,
2012-12-11,-0.08, 4.79, -16.08, 3.24, 2.42, 10.60, repro,
2012-12-12,3.06, 4.77, -7.27, 3.02, 2.42, 10.47, repro,
2012-12-13,1.96, 3.96, -15.19, 3.28, 2.55, 11.15, repro,
2012-12-14,1.38, 3.96, -5.19, 2.45, 1.69, 7.68, repro,
2012-12-15,1.45, 5.16, -11.17, 2.33, 1.64, 7.51, repro,
2012-12-16,1.81, 5.00, -1.84, 2.25, 1.55, 7.08, repro,
2012-12-17,2.70, 3.62, -1.91, 2.23, 1.54, 7.05, repro,
2012-12-18,4.22, 4.02, -0.98, 2.18, 1.51, 6.94, repro,
2012-12-19,0.72, 3.94, -12.09, 2.19, 1.50, 6.86, repro,
2012-12-20,0.46, 4.27, -12.88, 2.17, 1.50, 6.92, repro,
2012-12-21,1.70, 4.08, -13.21, 2.35, 1.67, 7.53, repro,
2012-12-22,2.74, 5.27, -12.97, 2.21, 1.53, 7.02, repro,
2012-12-23,2.00, 5.07, -14.17, 2.20, 1.52, 6.93, repro,
2012-12-24,2.34, 3.43, -15.82, 2.32, 1.60, 7.34, repro,
2012-12-25,0.84, 5.39, -20.63, 2.16, 1.49, 6.81, repro,
2012-12-26,2.63, 4.66, -13.62, 2.17, 1.50, 6.81, repro,
2012-12-27,1.87, 4.58, -18.07, 2.16, 1.49, 6.79, repro,
2012-12-28,2.14, 5.67, -19.65, 2.25, 1.56, 7.09, repro,
2012-12-29,2.05, 5.15, -16.24, 2.17, 1.49, 6.88, repro,
2012-12-30,1.98, 4.86, -12.03, 2.13, 1.46, 6.73, repro,
2012-12-31,2.02, 3.90, -19.93, 2.20, 1.54, 7.02, repro,
2013-01-01,2.39, 4.55, -18.93, 2.21, 1.53, 7.02, repro,
2013-01-02,2.40, 5.89, -21.59, 2.19, 1.53, 7.02, repro,
2013-01-03,2.63, 5.81, -18.00, 2.18, 1.51, 6.92, repro,
2013-01-04,2.05, 5.08, -17.75, 2.14, 1.47, 6.78, repro,
2013-01-05,2.46, 5.22, -20.18, 2.17, 1.51, 6.91, repro,
2013-01-06,1.44, 4.86, -14.94, 2.13, 1.47, 6.74, repro,
2013-01-07,2.58, 5.41, -10.62, 2.19, 1.53, 7.00, repro,
2013-01-08,0.97, 5.24, -5.21, 2.14, 1.48, 6.82, repro,
2013-01-09,0.73, 4.59, -19.57, 2.25, 1.59, 7.19, repro,
2013-01-10,1.76, 3.69, -15.49, 2.21, 1.55, 6.99, repro,
2013-01-11,1.90, 4.41, -15.13, 2.24, 1.56, 7.08, repro,
2013-01-12,2.42, 4.89, -19.25, 2.19, 1.53, 6.97, repro,
2013-01-13,2.76, 5.35, -23.34, 2.15, 1.51, 6.89, repro,
2013-01-14,2.62, 5.45, -22.56, 2.20, 1.54, 7.03, repro,
2013-01-15,1.47, 5.19, -27.21, 2.19, 1.53, 6.98, repro,
2013-01-16,2.28, 5.65, -23.35, 2.18, 1.48, 6.85, repro,
2013-01-17,2.58, 5.20, -25.33, 2.19, 1.49, 6.89, repro,
2013-01-18,3.45, 7.59, -28.20, 2.16, 1.53, 6.97, repro,
2013-01-19,2.32, 6.02, -20.68, 2.13, 1.48, 6.77, repro,
2013-01-20,2.31, 5.47, -20.27, 2.15, 1.49, 6.83, repro,
2013-01-21,2.31, 5.60, -17.49, 2.11, 1.47, 6.71, repro,